CZ-4 DEB, 26150

Orbit data source: Space-Track

CZ-4 DEB, 26150 is space debris in SSO originally from a launch on Thu, 14 Oct 1999 UTC launched from the Taiyaun Space Center, China (TSC). Debris objects in space refer to the collection of defunct objects orbiting the Earth. Examples of debris include non-operational satellites, rocket bodies, and fragments generated from explosions, collisions, or faulty payload assembly.

Loading next visibility...
Identifier
26150, 1999-057AL
Orbit
SSO
Country
Flag of CNCN / PRC
Related business
Manufacturer
Unknown
Mission
Spacecraft
Bus & Motor
Unknown
Mass
Unknown
Launch date (UTC)
1999-10-14 (26 years ago)
Launch vehicle
Unknown
Launch site
Taiyaun Space Center, China (TSC)
Object type
Payload
Rocket body
Debris
Shape & HBR
Unknown shape, 0.1 m
Radar Cross Section
Small (<0.1 m²)

Expand to show TLE details & history
Last TLE update: 19 hours ago

TLE from 19 hours ago
0 CZ-4 DEB
1 26150U 99057AL  25312.50426322  .00002230  00000-0  13801-2 0  9993
2 26150  99.1110  33.7254 0338654 309.3996  58.1326 13.81498301284927
Epoch: 2025-11-08T12:06Z
TLE epoch observation values (Epoch: 2025-11-08T12:06:08.342Z)
Latitude
10.71275°
Longitude
162.52836°
Altitude
835.712 km
Speed
7.499 km/s
True Right ascension
02h 07m 59s
True Declination
10° 39' 03"
Sunlit
Object was in full shadow at epoch
Visualization orbit readout
Latitude
Unknown
Longitude
Unknown
Altitude
Unknown
Speed
Unknown
Apparent Right ascension
Unknown
Apparent Declination
Unknown
Sunlit
N/A
Visualization observer readout
Local Sidereal Time
02:55:22
Azimuth
Unknown
Elevation
Unknown
Doppler factor
Unknown
Orbital elements
Apogee altitude
1,204.169 km
Perigee altitude
707.435 km
Semi-major axis
7,333.939 km
Eccentricity
0.03387
Inclination
99.111°
RAAN
33.7254°
Arg. of periapsis
309.3996°
True anomaly
61.50168°
Mean anomaly
58.1326°
Eccentric anomaly
59.80976°
Mean motion
3.45571 °/min
Orbital period
104.18 mins
BSTAR
0.0013801
Loading maneuver chart data...
Computing Atmospheric mass density...
Loading historical data...
Loading historical data...
Loading historical data...
Loading historical data...
Loading historical data...
Loading historical data...
Loading historical data...

Documentation

Showing up to 5 results
|